When you browse on this site, cookies collect data to enhance your experience and personalize the content and advertising you see.
Visit our Privacy Policy to learn more. By continuing to use the site, you agree to this use of cookies and data.
  • In Lithuania
  • List of Countries
  • For 7 days
  • Water Temperature
  • Satellite Maps
  • Weather Map
  • Weather Widgets
  • user-avatar
    Login

    Hourly Weather Novospasskoe

    Today, 16 June, Sunday

    Time Temperature Precipitation Wind Pressure Humidity
    00:00 +16°C° 0 mm 1 mps 743 mmHg 86%
    01:00 +15°C° 0 mm 1 mps 743 mmHg 88%
    02:00 +14°C° 0 mm 1 mps 743 mmHg 90%
    03:00 +12°C° 0 mm 0 mps 743 mmHg 92%
    04:00 +13°C° 0 mm 0 mps 743 mmHg 91%
    05:00 +15°C° 0 mm 1 mps 743 mmHg 91%
    06:00 +15°C° 0 mm 1 mps 743 mmHg 90%
    07:00 +16°C° 0 mm 1 mps 743 mmHg 86%
    08:00 +18°C° 0 mm 1 mps 743 mmHg 83%
    09:00 +19°C° 0 mm 1 mps 743 mmHg 79%
    10:00 +19°C° 0.5 mm 2 mps 743 mmHg 78%
    11:00 +20°C° 0.5 mm 2 mps 743 mmHg 76%
    12:00 +21°C° 0.5 mm 3 mps 743 mmHg 74%
    13:00 +21°C° 0.2 mm 3 mps 743 mmHg 71%
    14:00 +22°C° 0.2 mm 3 mps 743 mmHg 68%
    15:00 +23°C° 0.2 mm 4 mps 743 mmHg 65%
    16:00 +22°C° 0.1 mm 3 mps 743 mmHg 68%
    17:00 +22°C° 0.1 mm 3 mps 743 mmHg 70%
    18:00 +21°C° 0.1 mm 3 mps 742 mmHg 73%
    19:00 +20°C° 0.1 mm 2 mps 743 mmHg 78%
    20:00 +18°C° 0.1 mm 2 mps 743 mmHg 83%
    21:00 +18°C° 0.1 mm 1 mps 743 mmHg 88%
    22:00 +16°C° 0 mm 1 mps 743 mmHg 88%
    23:00 +16°C° 0 mm 1 mps 743 mmHg 88%

    Tomorrow, 17 June, Monday

    Time Temperature Precipitation Wind Pressure Humidity
    00:00 +15°C° 0 mm 1 mps 743 mmHg 89%
    01:00 +15°C° 0 mm 1 mps 744 mmHg 89%
    02:00 +14°C° 0 mm 1 mps 744 mmHg 89%
    03:00 +14°C° 0 mm 1 mps 744 mmHg 90%
    04:00 +14°C° 0 mm 0 mps 744 mmHg 88%
    05:00 +15°C° 0 mm 0 mps 744 mmHg 86%
    06:00 +15°C° 0 mm 0 mps 744 mmHg 85%
    07:00 +19°C° 0 mm 1 mps 744 mmHg 80%
    08:00 +20°C° 0 mm 1 mps 744 mmHg 75%
    09:00 +22°C° 0 mm 1 mps 745 mmHg 70%
    10:00 +22°C° 0.1 mm 1 mps 744 mmHg 67%
    11:00 +23°C° 0.1 mm 2 mps 744 mmHg 65%
    12:00 +24°C° 0.1 mm 2 mps 744 mmHg 62%
    13:00 +24°C° 0.1 mm 2 mps 744 mmHg 62%
    14:00 +25°C° 0.1 mm 2 mps 744 mmHg 62%
    15:00 +25°C° 0.1 mm 2 mps 744 mmHg 62%
    16:00 +25°C° 0 mm 2 mps 744 mmHg 64%
    17:00 +25°C° 0 mm 2 mps 743 mmHg 66%
    18:00 +25°C° 0 mm 2 mps 743 mmHg 68%
    19:00 +23°C° 0 mm 2 mps 743 mmHg 70%
    20:00 +22°C° 0 mm 1 mps 743 mmHg 72%
    21:00 +21°C° 0 mm 1 mps 743 mmHg 74%
    22:00 +20°C° 0 mm 1 mps 743 mmHg 78%
    23:00 +19°C° 0 mm 1 mps 743 mmHg 81%

    Day after tomorrow, 18 June, Tuesday

    Time Temperature Precipitation Wind Pressure Humidity
    00:00 +19°C° 0 mm 1 mps 743 mmHg 85%
    01:00 +17°C° 0 mm 2 mps 743 mmHg 87%
    02:00 +17°C° 0 mm 2 mps 743 mmHg 89%
    03:00 +17°C° 0 mm 2 mps 742 mmHg 91%
    04:00 +17°C° 0 mm 2 mps 742 mmHg 89%
    05:00 +18°C° 0 mm 3 mps 742 mmHg 88%
    06:00 +18°C° 0 mm 3 mps 742 mmHg 86%
    07:00 +19°C° 0.3 mm 3 mps 742 mmHg 84%
    08:00 +20°C° 0.3 mm 3 mps 742 mmHg 83%
    09:00 +21°C° 0.3 mm 3 mps 742 mmHg 81%
    10:00 +21°C° 0.1 mm 3 mps 742 mmHg 84%
    11:00 +21°C° 0.1 mm 3 mps 742 mmHg 86%
    12:00 +20°C° 0.1 mm 3 mps 743 mmHg 89%
    13:00 +20°C° 0.1 mm 3 mps 742 mmHg 88%
    14:00 +20°C° 0.1 mm 4 mps 742 mmHg 88%
    15:00 +20°C° 0.1 mm 5 mps 742 mmHg 87%
    16:00 +21°C° 0 mm 4 mps 742 mmHg 83%
    17:00 +22°C° 0 mm 4 mps 742 mmHg 78%
    18:00 +24°C° 0 mm 3 mps 742 mmHg 74%
    19:00 +21°C° 0 mm 3 mps 743 mmHg 77%
    20:00 +20°C° 0 mm 2 mps 743 mmHg 80%
    21:00 +20°C° 0 mm 1 mps 743 mmHg 83%
    22:00 +19°C° 0 mm 1 mps 744 mmHg 83%
    23:00 +17°C° 0 mm 2 mps 744 mmHg 83%

    19 June, Wednesday

    Time Temperature Precipitation Wind Pressure Humidity
    00:00 +17°C° 0 mm 2 mps 744 mmHg 82%
    01:00 +16°C° 0 mm 2 mps 744 mmHg 84%
    02:00 +16°C° 0 mm 2 mps 744 mmHg 85%
    03:00 +15°C° 0 mm 2 mps 744 mmHg 87%
    04:00 +16°C° 0 mm 2 mps 745 mmHg 86%
    05:00 +16°C° 0 mm 2 mps 745 mmHg 85%
    06:00 +17°C° 0 mm 2 mps 745 mmHg 84%
    07:00 +18°C° 0 mm 3 mps 745 mmHg 79%
    08:00 +20°C° 0 mm 3 mps 745 mmHg 73%
    09:00 +21°C° 0 mm 3 mps 745 mmHg 67%
    10:00 +22°C° 0 mm 3 mps 746 mmHg 63%
    11:00 +24°C° 0 mm 3 mps 746 mmHg 59%
    12:00 +26°C° 0 mm 3 mps 746 mmHg 56%
    13:00 +26°C° 0 mm 3 mps 746 mmHg 56%
    14:00 +26°C° 0 mm 3 mps 746 mmHg 56%
    15:00 +26°C° 0 mm 3 mps 746 mmHg 56%
    16:00 +26°C° 0 mm 3 mps 745 mmHg 60%
    17:00 +26°C° 0 mm 2 mps 745 mmHg 63%
    18:00 +26°C° 0 mm 2 mps 745 mmHg 66%
    19:00 +24°C° 0 mm 2 mps 745 mmHg 70%
    20:00 +22°C° 0 mm 1 mps 745 mmHg 74%
    21:00 +20°C° 0 mm 1 mps 746 mmHg 78%
    22:00 +19°C° 0 mm 1 mps 746 mmHg 78%
    23:00 +19°C° 0 mm 1 mps 746 mmHg 78%

    20 June, Thursday

    Time Temperature Precipitation Wind Pressure Humidity
    00:00 +18°C° 0 mm 1 mps 746 mmHg 78%
    01:00 +18°C° 0 mm 1 mps 746 mmHg 81%
    02:00 +16°C° 0 mm 1 mps 746 mmHg 83%
    03:00 +16°C° 0 mm 2 mps 746 mmHg 86%
    04:00 +18°C° 0 mm 1 mps 747 mmHg 85%
    05:00 +18°C° 0 mm 1 mps 747 mmHg 83%
    06:00 +19°C° 0 mm 1 mps 747 mmHg 82%
    07:00 +21°C° 0 mm 1 mps 747 mmHg 77%
    08:00 +22°C° 0 mm 1 mps 747 mmHg 71%
    09:00 +24°C° 0 mm 1 mps 747 mmHg 65%
    10:00 +25°C° 0 mm 1 mps 747 mmHg 60%
    11:00 +26°C° 0 mm 1 mps 747 mmHg 55%
    12:00 +27°C° 0 mm 1 mps 747 mmHg 49%
    13:00 +27°C° 0 mm 1 mps 747 mmHg 48%
    14:00 +28°C° 0 mm 1 mps 747 mmHg 46%
    15:00 +28°C° 0 mm 1 mps 747 mmHg 45%
    16:00 +28°C° 0 mm 1 mps 746 mmHg 49%
    17:00 +28°C° 0 mm 1 mps 746 mmHg 53%
    18:00 +27°C° 0 mm 1 mps 746 mmHg 57%
    19:00 +23°C° 0 mm 0 mps 746 mmHg 58%
    20:00 +21°C° 0 mm 0 mps 746 mmHg 59%
    21:00 +19°C° 0 mm 0 mps 746 mmHg 60%
    22:00 +21°C° 0 mm 1 mps 746 mmHg 62%
    23:00 +20°C° 0 mm 1 mps 746 mmHg 63%

    21 June, Friday

    Time Temperature Precipitation Wind Pressure Humidity
    00:00 +20°C° 0 mm 1 mps 746 mmHg 64%
    01:00 +19°C° 0 mm 1 mps 746 mmHg 67%
    02:00 +19°C° 0 mm 1 mps 746 mmHg 70%
    03:00 +18°C° 0 mm 1 mps 746 mmHg 73%
    04:00 +19°C° 0 mm 1 mps 747 mmHg 75%
    05:00 +20°C° 0 mm 1 mps 747 mmHg 77%
    06:00 +20°C° 0 mm 1 mps 747 mmHg 79%
    07:00 +22°C° 0 mm 1 mps 747 mmHg 75%
    08:00 +23°C° 0 mm 1 mps 747 mmHg 70%
    09:00 +25°C° 0 mm 1 mps 747 mmHg 66%
    10:00 +25°C° 0 mm 2 mps 747 mmHg 63%
    11:00 +26°C° 0 mm 2 mps 747 mmHg 59%
    12:00 +27°C° 0 mm 2 mps 747 mmHg 55%
    13:00 +27°C° 0 mm 2 mps 747 mmHg 56%
    14:00 +27°C° 0 mm 3 mps 747 mmHg 57%
    15:00 +27°C° 0 mm 3 mps 746 mmHg 57%
    16:00 +27°C° 0 mm 3 mps 746 mmHg 61%
    17:00 +27°C° 0 mm 2 mps 746 mmHg 64%
    18:00 +27°C° 0 mm 2 mps 746 mmHg 68%
    19:00 +25°C° 0 mm 2 mps 746 mmHg 71%
    20:00 +24°C° 0 mm 2 mps 746 mmHg 75%
    21:00 +21°C° 0 mm 2 mps 746 mmHg 78%
    22:00 +21°C° 0 mm 2 mps 746 mmHg 80%
    23:00 +20°C° 0 mm 2 mps 746 mmHg 81%
    Show more